Location: Newark
(25.6108°S, 54.5803°W)
Time: 13:33:28
(UTC+00:00)

Transit 2A Rocket - All Passes

Search period start: 31 October 2020 00:00
Search period end: 10 November 2020 00:00
Orbit: 586 x 916 km, 66.7° (Epoch: 30 October)

Date Brightness Start Highest point End Pass type
(mag) Time Alt. Az. Time Alt. Az. Time Alt. Az.
31 Oct - 01:11:09 10° WSW 01:12:41 12° WSW 01:14:13 10° SW visible
31 Oct - 09:57:54 10° SSW 10:03:25 70° ESE 10:09:20 10° NNE daylight
31 Oct - 11:43:51 10° W 11:45:34 11° WNW 11:47:19 10° WNW daylight
31 Oct - 22:44:42 10° NNE 22:47:38 18° ENE 22:50:35 10° ESE visible
01 Nov - 00:26:26 10° WNW 00:29:54 24° WSW 00:33:25 10° S visible
01 Nov - 09:15:43 10° S 09:20:49 37° ESE 09:26:14 10° NE daylight
01 Nov - 10:58:51 10° WSW 11:03:11 23° WNW 11:07:42 10° NNW daylight
01 Nov - 23:43:05 10° NW 23:47:14 51° WSW 23:51:29 10° SSE visible
02 Nov - 08:34:01 10° SSE 08:38:07 21° ESE 08:42:24 10° ENE daylight
02 Nov - 10:15:28 10° SW 10:20:44 42° WNW 10:26:19 10° N daylight
02 Nov - 23:00:28 10° NNW 23:04:42 70° ENE 23:09:01 10° SSE visible
03 Nov - 07:53:42 10° SE 07:55:17 11° ESE 07:56:54 10° ESE visible
03 Nov - 09:32:38 10° SSW 09:38:13 80° WNW 09:44:12 10° NNE daylight
03 Nov - 22:18:31 10° N 22:22:15 30° ENE 22:26:03 10° SE visible
04 Nov - 00:02:16 10° W 00:04:46 15° WSW 00:07:20 10° SSW visible
04 Nov - 08:50:11 10° SSW 08:55:40 56° ESE 09:01:29 10° NE daylight
04 Nov - 10:34:47 10° WSW 10:37:52 15° WNW 10:41:04 10° NW daylight
04 Nov - 21:37:44 10° NE 21:39:54 14° ENE 21:42:04 10° ESE daylight
04 Nov - 23:18:15 10° NW 23:22:02 30° WSW 23:25:56 10° S visible
05 Nov - 08:08:08 10° S 08:13:01 31° ESE 08:18:10 10° ENE visible
05 Nov - 09:50:41 10° SW 09:55:28 28° WNW 10:00:29 10° NNW daylight
05 Nov - 22:35:11 10° NNW 22:39:25 69° WSW 22:43:46 10° SSE visible
06 Nov - 07:26:41 10° SSE 07:30:17 17° ESE 07:33:59 10° E visible
06 Nov - 09:07:31 10° SW 09:13:00 53° WNW 09:18:48 10° N daylight
06 Nov - 21:52:47 10° N 21:56:55 51° ENE 22:01:09 10° SE daylight
07 Nov - 08:24:50 10° SSW 08:30:28 83° ESE 08:36:29 10° NNE daylight
07 Nov - 21:11:09 10° NNE 21:14:31 23° ENE 21:17:56 10° SE daylight
07 Nov - 22:53:47 10° WNW 22:56:53 19° WSW 23:00:05 10° SSW visible
08 Nov - 07:42:31 10° S 07:47:53 45° ESE 07:53:34 10° NE visible
08 Nov - 09:26:16 10° WSW 09:30:11 19° WNW 09:34:14 10° NNW daylight
08 Nov - 20:32:00 10° ENE 20:32:11 10° ENE 20:32:21 10° ENE daylight
08 Nov - 22:10:11 10° NW 22:14:11 40° WSW 22:18:20 10° S daylight
09 Nov - 07:00:38 10° S 07:05:12 25° ESE 07:10:00 10° ENE visible
09 Nov - 08:42:36 10° SW 08:47:45 35° WNW 08:53:09 10° N daylight
09 Nov - 21:27:21 10° NNW 21:31:37 89° ENE 21:36:00 10° SSE daylight
